Paso Robles, CA

9:34 AM PDT on September 27, 2016 (GMT -0700)
Paso Robles Municipal

Weather History for KPRB - April, 2014

Change the Weather History Date:

Friday, April 4, 2014

  Actual Average Record
Temperature  
Mean Temperature 49 °F 55 °F  
Max Temperature 60 °F 70 °F 96 °F (1961)
Min Temperature 38 °F 40 °F 28 °F (2009)
Degree Days  
Heating Degree Days 16 10  
Month to date heating degree days 59 42  
Since 1 July heating degree days 1994 2501  
Cooling Degree Days 0 0  
Month to date cooling degree days 0 0  
Year to date cooling degree days 0 0  
Moisture  
Dew Point 43 °F    
Average Humidity 81    
Maximum Humidity 100    
Minimum Humidity 62    
Precipitation  
Precipitation 0.01 in 0.03 in 0.42 in (2006)
Month to date precipitation 0.32 0.14  
Year to date precipitation 4.44 7.97  
Since 1 July precipitation 4.90  
Sea Level Pressure  
Sea Level Pressure 30.02 in    
Wind  
Wind Speed 5 mph (West)    
Max Wind Speed 15 mph    
Max Gust Speed 20 mph    
Visibility 10 miles    
Events Rain    
T = Trace of Precipitation, MM = Missing Value Source: NWS Daily Summary

Daily Weather History Graph

Daily Weather History Graph

Search for Another Location

Airport or City:

Trip Planner

Search our weather history database for the weather conditions in past years. The results will help you decide how hot, cold, wet, or windy it might be!

Date:

Astronomy

Apr. 04, 2014 Rise Set
Actual Time 6:44 AM PDT 7:26 PM PDT
Civil Twilight 6:18 AM PDT 7:52 PM PDT
Nautical Twilight 5:48 AM PDT 8:23 PM PDT
Astronomical Twilight 5:17 AM PDT 8:54 PM PDT
Moon 10:12 AM PDT (4/4) No Moon Set
Length of Visible Light 13h 33m
Length of Day
12h 42m
Waxing Crescent, 26% of the Moon is Illuminated
Apr 4
Waxing Crescent
Apr 7
First Quarter
Apr 15
Full
Apr 22
Last Quarter
Apr 28
New

Hourly Weather History & Observations

Time (PDT) Temp. Windchill Dew Point Humidity Pressure Visibility Wind Dir Wind Speed Gust Speed Precip Events Conditions
12:53 AM 46.9 °F - 43.0 °F 86% 30.05 in 10.0 mi South 6.9 mph - N/A   Clear
1:53 AM 45.0 °F 41.8 °F 43.0 °F 93% 30.04 in 10.0 mi South 5.8 mph - N/A   Clear
2:53 AM 44.1 °F - 42.1 °F 93% 30.04 in 10.0 mi Calm Calm - N/A   Clear
3:14 AM 44.1 °F - 41.0 °F 89% 30.04 in 10.0 mi Calm Calm - N/A   Mostly Cloudy
3:35 AM 43.0 °F - 39.9 °F 89% 30.03 in 10.0 mi Calm Calm - N/A   Scattered Clouds
3:53 AM 43.0 °F - 39.9 °F 89% 30.03 in 10.0 mi Calm Calm - N/A   Clear
4:53 AM 39.9 °F - 37.9 °F 93% 30.02 in 10.0 mi Calm Calm - N/A   Clear
5:53 AM 37.9 °F 34.4 °F 37.0 °F 97% 30.01 in 10.0 mi SE 4.6 mph - N/A   Clear
6:53 AM 39.9 °F - 37.9 °F 93% 30.02 in 10.0 mi Calm Calm - N/A   Clear
7:53 AM 42.1 °F - 39.9 °F 92% 30.03 in 10.0 mi Calm Calm - N/A   Partly Cloudy
8:53 AM 46.9 °F - 44.1 °F 90% 30.03 in 10.0 mi Variable 3.5 mph - N/A   Overcast
9:53 AM 50.0 °F - 45.0 °F 83% 30.04 in 10.0 mi Calm Calm - N/A   Overcast
10:53 AM 51.1 °F - 44.1 °F 77% 30.05 in 10.0 mi Calm Calm - 0.00 in Rain Light Rain
11:12 AM 52.0 °F - 45.0 °F 77% 30.04 in 10.0 mi Calm Calm - 0.00 in   Overcast
11:53 AM 53.1 °F - 45.0 °F 74% 30.04 in 10.0 mi Calm Calm - 0.00 in   Overcast
12:22 PM 55.0 °F - 44.1 °F 67% 30.03 in 10.0 mi Calm Calm - N/A   Overcast
12:41 PM 55.0 °F - 45.0 °F 69% 30.03 in 10.0 mi WNW 3.5 mph - N/A   Overcast
12:53 PM 55.0 °F - 46.0 °F 72% 30.02 in 10.0 mi NW 6.9 mph - N/A   Overcast
1:09 PM 54.0 °F - 46.9 °F 77% 30.02 in 7.0 mi WSW 3.5 mph - 0.01 in Rain Light Rain
1:53 PM 55.0 °F - 46.9 °F 74% 30.01 in 10.0 mi Variable 3.5 mph - 0.01 in   Overcast
2:53 PM 57.0 °F - 46.9 °F 69% 29.99 in 10.0 mi WSW 3.5 mph - 0.00 in   Overcast
3:53 PM 57.9 °F - 46.9 °F 67% 29.97 in 10.0 mi SW 8.1 mph - N/A   Clear
4:53 PM 55.9 °F - 46.0 °F 69% 29.98 in 10.0 mi West 9.2 mph - N/A   Mostly Cloudy
5:53 PM 57.0 °F - 45.0 °F 64% 29.97 in 10.0 mi WNW 9.2 mph - N/A   Clear
6:53 PM 55.0 °F - 46.0 °F 72% 29.98 in 10.0 mi West 12.7 mph - N/A   Clear
7:53 PM 52.0 °F - 46.0 °F 80% 29.99 in 10.0 mi WNW 6.9 mph - N/A   Clear
8:53 PM 51.1 °F - 39.0 °F 63% 30.02 in 10.0 mi NW 12.7 mph - N/A   Clear
9:53 PM 50.0 °F - 39.9 °F 68% 30.03 in 10.0 mi NW 8.1 mph - N/A   Scattered Clouds
10:53 PM 46.9 °F - 39.9 °F 77% 30.04 in 10.0 mi WNW 5.8 mph - N/A   Clear
11:53 PM 46.0 °F 43.1 °F 41.0 °F 83% 30.04 in 10.0 mi NW 5.8 mph - N/A   Clear